Hourly Weather Barnsley

Today, 6 May, Thursday

Time Temperature Precipitation Wind Pressure Humidity
00:00 +2°C° 0 mm 2 mps 745 mmHg 76%
01:00 +2°C° 0 mm 2 mps 744 mmHg 79%
02:00 +2°C° 0 mm 2 mps 744 mmHg 81%
03:00 +2°C° 0 mm 2 mps 744 mmHg 83%
04:00 +3°C° 0 mm 2 mps 743 mmHg 83%
05:00 +3°C° 0 mm 2 mps 743 mmHg 83%
06:00 +3°C° 0 mm 2 mps 743 mmHg 81%
07:00 +4°C° 0.1 mm 3 mps 743 mmHg 72%
08:00 +5°C° 0.1 mm 3 mps 743 mmHg 62%
09:00 +6°C° 0.1 mm 4 mps 743 mmHg 53%
10:00 +7°C° 0 mm 4 mps 743 mmHg 48%
11:00 +8°C° 0 mm 4 mps 742 mmHg 43%
12:00 +8°C° 0 mm 5 mps 742 mmHg 38%
13:00 +8°C° 0.1 mm 5 mps 742 mmHg 44%
14:00 +8°C° 0.1 mm 6 mps 742 mmHg 50%
15:00 +7°C° 0.1 mm 6 mps 742 mmHg 56%
16:00 +7°C° 0.3 mm 6 mps 743 mmHg 65%
17:00 +6°C° 0.3 mm 5 mps 743 mmHg 75%
18:00 +5°C° 0.3 mm 5 mps 743 mmHg 85%
19:00 +4°C° 0.1 mm 4 mps 744 mmHg 87%
20:00 +3°C° 0.1 mm 4 mps 744 mmHg 89%
21:00 +2°C° 0.1 mm 3 mps 745 mmHg 91%
22:00 +2°C° 0 mm 3 mps 745 mmHg 91%
23:00 +1°C° 0 mm 3 mps 746 mmHg 92%

Tomorrow, 7 May, Friday

Time Temperature Precipitation Wind Pressure Humidity
00:00 +2°C° 0 mm 2 mps 746 mmHg 93%
01:00 +2°C° 0 mm 2 mps 747 mmHg 93%
02:00 +2°C° 0 mm 2 mps 747 mmHg 93%
03:00 +2°C° 0 mm 2 mps 747 mmHg 92%
04:00 +2°C° 0 mm 2 mps 748 mmHg 91%
05:00 +3°C° 0 mm 2 mps 748 mmHg 90%
06:00 +5°C° 0 mm 1 mps 749 mmHg 88%
07:00 +5°C° 0 mm 2 mps 749 mmHg 82%
08:00 +6°C° 0 mm 2 mps 750 mmHg 75%
09:00 +7°C° 0 mm 2 mps 750 mmHg 69%
10:00 +8°C° 0.1 mm 3 mps 750 mmHg 67%
11:00 +8°C° 0.1 mm 3 mps 750 mmHg 65%
12:00 +7°C° 0.1 mm 4 mps 750 mmHg 63%
13:00 +8°C° 0.1 mm 4 mps 750 mmHg 58%
14:00 +10°C° 0.1 mm 4 mps 750 mmHg 52%
15:00 +10°C° 0.1 mm 4 mps 750 mmHg 47%
16:00 +10°C° 0 mm 4 mps 750 mmHg 50%
17:00 +10°C° 0 mm 3 mps 750 mmHg 52%
18:00 +9°C° 0 mm 3 mps 750 mmHg 55%
19:00 +8°C° 0 mm 2 mps 750 mmHg 60%
20:00 +7°C° 0 mm 1 mps 750 mmHg 65%
21:00 +5°C° 0 mm 0 mps 750 mmHg 70%
22:00 +5°C° 0 mm 1 mps 750 mmHg 72%
23:00 +5°C° 0 mm 1 mps 749 mmHg 73%

Day after tomorrow, 8 May, Saturday

Time Temperature Precipitation Wind Pressure Humidity
00:00 +5°C° 0 mm 1 mps 749 mmHg 75%
01:00 +4°C° 0 mm 2 mps 748 mmHg 77%
02:00 +4°C° 0 mm 2 mps 747 mmHg 79%
03:00 +4°C° 0 mm 2 mps 747 mmHg 81%
04:00 +3°C° 0.4 mm 3 mps 746 mmHg 84%
05:00 +3°C° 0.4 mm 3 mps 745 mmHg 88%
06:00 +3°C° 0.4 mm 4 mps 744 mmHg 91%
07:00 +3°C° 2.7 mm 5 mps 742 mmHg 93%
08:00 +3°C° 2.7 mm 6 mps 741 mmHg 95%
09:00 +3°C° 2.7 mm 6 mps 739 mmHg 97%
10:00 +5°C° 1.9 mm 6 mps 738 mmHg 97%
11:00 +7°C° 1.9 mm 5 mps 737 mmHg 97%
12:00 +8°C° 1.9 mm 5 mps 736 mmHg 97%
13:00 +9°C° 0.5 mm 5 mps 736 mmHg 96%
14:00 +10°C° 0.5 mm 6 mps 736 mmHg 96%
15:00 +11°C° 0.5 mm 6 mps 735 mmHg 95%
16:00 +11°C° 0.1 mm 6 mps 735 mmHg 95%
17:00 +11°C° 0.1 mm 6 mps 735 mmHg 95%
18:00 +11°C° 0.1 mm 6 mps 735 mmHg 95%
19:00 +12°C° 0.3 mm 5 mps 735 mmHg 95%
20:00 +12°C° 0.3 mm 5 mps 735 mmHg 96%
21:00 +12°C° 0.3 mm 5 mps 735 mmHg 96%
22:00 +11°C° 0.1 mm 6 mps 735 mmHg 95%
23:00 +11°C° 0.1 mm 7 mps 734 mmHg 95%

9 May, Sunday

Time Temperature Precipitation Wind Pressure Humidity
00:00 +11°C° 0.1 mm 8 mps 734 mmHg 94%
01:00 +11°C° 0 mm 7 mps 734 mmHg 93%
02:00 +11°C° 0 mm 7 mps 733 mmHg 93%
03:00 +11°C° 0 mm 6 mps 733 mmHg 92%
04:00 +11°C° 0.2 mm 6 mps 733 mmHg 92%
05:00 +11°C° 0.2 mm 6 mps 733 mmHg 92%
06:00 +12°C° 0.2 mm 5 mps 733 mmHg 91%
07:00 +12°C° 0.3 mm 5 mps 733 mmHg 91%
08:00 +12°C° 0.3 mm 4 mps 733 mmHg 90%
09:00 +12°C° 0.3 mm 3 mps 733 mmHg 90%
10:00 +11°C° 0.3 mm 4 mps 733 mmHg 89%
11:00 +11°C° 0.3 mm 4 mps 733 mmHg 89%
12:00 +11°C° 0.3 mm 4 mps 733 mmHg 89%
13:00 +12°C° 0 mm 5 mps 733 mmHg 83%
14:00 +13°C° 0 mm 6 mps 733 mmHg 77%
15:00 +14°C° 0 mm 7 mps 733 mmHg 71%
16:00 +14°C° 0.1 mm 7 mps 733 mmHg 73%
17:00 +13°C° 0.1 mm 6 mps 733 mmHg 74%
18:00 +13°C° 0.1 mm 6 mps 733 mmHg 75%
19:00 +11°C° 0 mm 6 mps 733 mmHg 77%
20:00 +10°C° 0 mm 5 mps 733 mmHg 78%
21:00 +9°C° 0 mm 5 mps 733 mmHg 80%
22:00 +9°C° 0 mm 5 mps 734 mmHg 80%
23:00 +9°C° 0 mm 6 mps 734 mmHg 80%

10 May, Monday

Time Temperature Precipitation Wind Pressure Humidity
00:00 +8°C° 0 mm 6 mps 734 mmHg 80%
01:00 +8°C° 0 mm 5 mps 734 mmHg 81%
02:00 +8°C° 0 mm 5 mps 734 mmHg 82%
03:00 +8°C° 0 mm 5 mps 734 mmHg 82%
04:00 +8°C° 0 mm 5 mps 734 mmHg 79%
05:00 +8°C° 0 mm 6 mps 735 mmHg 75%
06:00 +9°C° 0 mm 6 mps 735 mmHg 72%
07:00 +9°C° 0 mm 7 mps 735 mmHg 72%
08:00 +9°C° 0 mm 7 mps 736 mmHg 73%
09:00 +9°C° 0 mm 7 mps 736 mmHg 74%
10:00 +10°C° 0.1 mm 8 mps 737 mmHg 70%
11:00 +11°C° 0.1 mm 8 mps 737 mmHg 66%
12:00 +12°C° 0.1 mm 8 mps 738 mmHg 63%
13:00 +12°C° 0 mm 8 mps 738 mmHg 60%
14:00 +13°C° 0 mm 8 mps 739 mmHg 57%
15:00 +13°C° 0 mm 8 mps 739 mmHg 54%
16:00 +12°C° 0 mm 7 mps 739 mmHg 58%
17:00 +11°C° 0 mm 7 mps 740 mmHg 62%
18:00 +11°C° 0 mm 6 mps 740 mmHg 66%
19:00 +10°C° 0 mm 5 mps 741 mmHg 70%
20:00 +9°C° 0 mm 5 mps 742 mmHg 73%
21:00 +8°C° 0 mm 4 mps 742 mmHg 77%
22:00 +7°C° 0 mm 4 mps 742 mmHg 79%
23:00 +7°C° 0 mm 4 mps 743 mmHg 80%

11 May, Tuesday

Time Temperature Precipitation Wind Pressure Humidity
00:00 +6°C° 0 mm 4 mps 743 mmHg 82%
01:00 +7°C° 0 mm 3 mps 743 mmHg 84%
02:00 +5°C° 0 mm 3 mps 743 mmHg 87%
03:00 +4°C° 0 mm 3 mps 743 mmHg 89%
04:00 +5°C° 0 mm 3 mps 744 mmHg 87%
05:00 +5°C° 0 mm 3 mps 744 mmHg 86%
06:00 +7°C° 0 mm 3 mps 745 mmHg 84%
07:00 +9°C° 0 mm 3 mps 745 mmHg 75%
08:00 +10°C° 0 mm 4 mps 745 mmHg 67%
09:00 +12°C° 0 mm 4 mps 745 mmHg 58%
10:00 +13°C° 0 mm 4 mps 745 mmHg 55%
11:00 +14°C° 0 mm 4 mps 745 mmHg 51%
12:00 +15°C° 0 mm 4 mps 746 mmHg 48%
13:00 +15°C° 0 mm 4 mps 746 mmHg 49%
14:00 +15°C° 0 mm 4 mps 746 mmHg 49%
15:00 +17°C° 0 mm 4 mps 746 mmHg 50%
16:00 +16°C° 0 mm 3 mps 746 mmHg 56%
17:00 +15°C° 0 mm 2 mps 746 mmHg 62%
18:00 +15°C° 0 mm 2 mps 747 mmHg 68%
19:00 +13°C° 0.5 mm 2 mps 747 mmHg 75%
20:00 +12°C° 0.5 mm 2 mps 747 mmHg 83%
21:00 +10°C° 0.5 mm 2 mps 748 mmHg 91%
22:00 +10°C° 1.6 mm 2 mps 748 mmHg 92%
23:00 +10°C° 1.6 mm 2 mps 748 mmHg 94%
Show more